London, KY

4:02 PM EST on December 02, 2016 (GMT -0500)
London-Corbin / McKee

Weather History for KLOZ - January, 2012

Change the Weather History Date:

Tuesday, January 10, 2012

  Actual Average Record
Temperature  
Mean Temperature 41 °F 35 °F  
Max Temperature 48 °F 44 °F 65 °F (1972)
Min Temperature 33 °F 26 °F -15 °F (1970)
Degree Days  
Heating Degree Days 24 30  
Month to date heating degree days 271 296  
Since 1 July heating degree days 1838 1948  
Cooling Degree Days 0 0  
Month to date cooling degree days 0 0  
Year to date cooling degree days 0 0  
Moisture  
Dew Point 37 °F    
Average Humidity 86    
Maximum Humidity 100    
Minimum Humidity 71    
Precipitation  
Precipitation T in 0.11 in 2.67 in (1974)
Month to date precipitation 0.05 1.15  
Year to date precipitation 0.05 1.15  
Sea Level Pressure  
Sea Level Pressure 30.08 in    
Wind  
Wind Speed 1 mph (South)    
Max Wind Speed 7 mph    
Max Gust Speed 10 mph    
Visibility 5 miles    
Events Fog , Rain    
T = Trace of Precipitation, MM = Missing Value Source: NWS Daily Summary

Daily Weather History Graph

Daily Weather History Graph

Search for Another Location

Airport or City:

Trip Planner

Search our weather history database for the weather conditions in past years. The results will help you decide how hot, cold, wet, or windy it might be!

Date:

Astronomy

Jan. 10, 2012 Rise Set
Actual Time 7:50 AM EST 5:37 PM EST
Civil Twilight 7:21 AM EST 6:06 PM EST
Nautical Twilight 6:49 AM EST 6:38 PM EST
Astronomical Twilight 6:17 AM EST 7:09 PM EST
Moon 7:25 PM EST (1/10) 8:30 AM EST (1/10)
Length of Visible Light 10h 44m
Length of Day
9h 47m
Full, 98% of the Moon is Illuminated
Jan 10
Full
Jan 16
Last Quarter
Jan 23
New
Jan 30
First Quarter
Feb 7
Full

Hourly Weather History & Observations

Time (EST) Temp. Windchill Dew Point Humidity Pressure Visibility Wind Dir Wind Speed Gust Speed Precip Events Conditions
12:53 AM 42.1 °F 40.2 °F 39.9 °F 92% 30.14 in 7.0 mi WSW 3.5 mph - N/A   Overcast
1:53 AM 39.9 °F 37.8 °F 39.0 °F 97% 30.14 in 6.0 mi West 3.5 mph - N/A   Scattered Clouds
2:14 AM 39.2 °F - 37.4 °F 93% 30.12 in 1.5 mi Calm Calm - N/A   Scattered Clouds
2:17 AM 37.4 °F - 37.4 °F 100% 30.13 in 0.8 mi Calm Calm - N/A   Mist
2:29 AM 39.2 °F 35.0 °F 37.4 °F 93% 30.13 in 2.0 mi SW 5.8 mph - N/A   Mostly Cloudy
2:36 AM 39.2 °F 34.2 °F 39.2 °F 100% 30.13 in 6.0 mi West 6.9 mph - N/A   Mostly Cloudy
2:53 AM 39.0 °F - 37.9 °F 96% 30.14 in 5.0 mi Calm Calm - N/A   Mostly Cloudy
3:37 AM 37.4 °F - 37.4 °F 100% 30.12 in 2.0 mi Calm Calm - N/A   Scattered Clouds
3:43 AM 35.6 °F - 35.6 °F 100% 30.12 in 1.0 mi Calm Calm - N/A   Mist
3:53 AM 37.0 °F - 37.0 °F 100% 30.13 in 1.2 mi Calm Calm - N/A   Mostly Cloudy
4:09 AM 35.6 °F - 35.6 °F 100% 30.12 in 0.2 mi Calm Calm - N/A Fog Fog
4:53 AM 34.0 °F - 34.0 °F 100% 30.12 in 0.5 mi Calm Calm - N/A Fog Fog
5:53 AM 37.0 °F - 37.0 °F 100% 30.12 in 0.5 mi Calm Calm - N/A Fog Fog
6:53 AM 36.0 °F - 36.0 °F 100% 30.14 in 0.2 mi Calm Calm - N/A Fog Fog
7:53 AM 36.0 °F - 36.0 °F 100% 30.14 in 0.8 mi Calm Calm - N/A   Mist
8:00 AM 35.6 °F - 35.6 °F 100% 30.12 in 1.2 mi Calm Calm - N/A   Overcast
8:33 AM 35.6 °F - 35.6 °F 100% 30.12 in 0.5 mi Calm Calm - N/A Fog Fog
8:53 AM 36.0 °F 33.3 °F 36.0 °F 100% 30.14 in 0.2 mi SE 3.5 mph - N/A Fog Fog
9:53 AM 36.0 °F - 36.0 °F 100% 30.16 in 0.2 mi Calm Calm - N/A Fog Fog
10:53 AM 37.9 °F - 37.9 °F 100% 30.13 in 0.2 mi Calm Calm - N/A Fog Fog
11:20 AM 39.2 °F - 37.4 °F 93% 30.12 in 1.8 mi Calm Calm - N/A   Overcast
11:27 AM 37.4 °F 33.8 °F 37.4 °F 100% 30.12 in 2.5 mi SE 4.6 mph - N/A   Overcast
11:36 AM 37.4 °F - 37.4 °F 100% 30.11 in 4.0 mi Calm Calm - N/A   Overcast
11:53 AM 39.0 °F 36.8 °F 37.9 °F 96% 30.12 in 5.0 mi East 3.5 mph - N/A   Overcast
12:30 PM 39.2 °F 37.0 °F 37.4 °F 93% 30.09 in 10.0 mi Variable 3.5 mph - N/A   Overcast
12:53 PM 42.1 °F - 37.9 °F 85% 30.08 in 10.0 mi Calm Calm - N/A   Scattered Clouds
1:53 PM 46.0 °F - 37.9 °F 73% 30.05 in 10.0 mi Calm Calm - N/A   Clear
2:53 PM 46.9 °F - 37.0 °F 68% 30.03 in 10.0 mi East 4.6 mph - N/A   Clear
3:53 PM 46.9 °F - 37.9 °F 71% 30.01 in 10.0 mi Calm Calm - N/A   Clear
4:53 PM 46.9 °F - 37.9 °F 71% 29.99 in 10.0 mi Calm Calm - N/A   Clear
5:53 PM 44.1 °F - 37.9 °F 79% 29.98 in 10.0 mi Calm Calm - N/A   Partly Cloudy
6:53 PM 39.9 °F 37.8 °F 37.0 °F 89% 29.98 in 10.0 mi NNE 3.5 mph - N/A   Clear
7:53 PM 41.0 °F - 37.0 °F 86% 29.96 in 10.0 mi Calm Calm - N/A   Clear
8:53 PM 39.0 °F - 37.0 °F 93% 29.96 in 10.0 mi Calm Calm - N/A   Partly Cloudy
9:53 PM 39.9 °F - 37.0 °F 89% 29.93 in 10.0 mi Calm Calm - N/A   Overcast
10:53 PM 41.0 °F - 37.9 °F 89% 29.91 in 10.0 mi Calm Calm - 0.00 in Rain Light Rain
11:53 PM 39.9 °F - 37.9 °F 93% 29.87 in 10.0 mi Calm Calm - 0.00 in   Mostly Cloudy